{"data":{"norad_id":60289,"intl_designator":"2024-132M","name":"STARLINK-32000","alt_names":[],"object_type":"PAYLOAD","status":"ACTIVE","operator":null,"country":"US","launch_date":"2024-07-28","launch_site_code":"AFETR","launch_vehicle":null,"mission":null,"orbit_class":"UNKNOWN","rcs_meters":null,"size_class":null,"mass_kg":null,"dimensions":null,"purposes":["comms"],"wikipedia_slug":null,"has_3d_model":false,"image_url":null,"decayed_at":null,"tle_current":{"epoch":"2026-05-25T04:25:47.860608Z","epoch_age_seconds":66064,"freshness":"FRESH","line1":"1 60289U 24132M   26145.18458172  .00001248  00000+0  51971-4 0  9992","line2":"2 60289  53.1621  57.0127 0001186  94.3753 265.7384 15.31707454103279","mean_motion":15.31707454,"eccentricity":0.0001186,"inclination_deg":53.1621,"raan_deg":57.0127,"arg_perigee_deg":94.3753,"mean_anomaly_deg":265.7384,"bstar":5.1971e-5,"rev_number":10327,"period_min":94.012730449244,"perigee_km":469.90550115328,"apogee_km":471.53004950599,"semimajor_km":6848.8547753296,"source":"CELESTRAK","updated_at":"2026-05-25T13:38:19.205798Z"}}}